Regional Weather Roundup
Issued by NWS

Home | Current Version | Previous Version | Graphics & Text | Print | Product List | Glossary On
Versions: 1 2 3 4 5 6 7 8 9 10 11 12 13 14 15 16 17 18 19 20 21 22 23 24 25 26 27 28 29 30 31 32 33 34 35 36 37 38 39 40 41 42 43 44 45 46 47 48 49 50
000
ASUS43 KLOT 280108
RWRIL

ILLINOIS REGIONAL WEATHER ROUNDUP
NATIONAL WEATHER SERVICE CHICAGO/ROMEOVILLE IL
800 PM CDT THU AUG 27 2015

NOTE: "FAIR" INDICATES FEW OR NO CLOUDS BELOW 12,000 FEET WITH NO
SIGNIFICANT WEATHER AND/OR OBSTRUCTIONS TO VISIBILITY.

* THESE STATIONS ARE NOT UNDER NWS QUALITY CONTROL. THEY ALSO MAY NOT
  REPORT WEATHER SUCH AS PRECIPITATION OR FOG.

ILZ001-002-007-009-015-016-024-280200-
NORTHWEST ILLINOIS

CITY           SKY/WX    TMP DP  RH WIND       PRES   REMARKS
MOLINE         MOCLDY    68  59  73 W3        30.12R
STERLING*      PTCLDY    66  59  77 CALM      30.09R
SAVANNA*       MOCLDY    68  58  72 CALM      30.11R
$$

ILZ003-004-008-010-011-017-018-280200-
NORTH CENTRAL ILLINOIS

CITY           SKY/WX    TMP DP  RH WIND       PRES   REMARKS
ROCKFORD       CLOUDY    65  56  72 E6        30.12F
FREEPORT*      PTCLDY    62  59  88 CALM      30.14R
ROCHELLE*      MOCLDY    62  58  87 E7        30.11F
DE KALB*       MOCLDY    63  57  80 SE3       30.12F
PERU*          PTCLDY    69  56  62 SE6       30.10F
$$

ILZ005-006-012>014-019>023-280200-
NORTHEAST ILLINOIS

CITY           SKY/WX    TMP DP  RH WIND       PRES   REMARKS
CHICAGO-OHARE  CLOUDY    66  54  65 E7        30.12S
CHICAGO-MIDWAY MOCLDY    69  55  60 E8        30.12S
AURORA         PTCLDY    63  57  81 E3        30.13S
LANSING*       MOCLDY    65  56  72 E3        30.13R
JOLIET*        PTCLDY    63  58  84 CALM      30.12S
WAUKEGAN       MOCLDY    63  56  78 SE3       30.13R
DUPAGE AIRPORT MOCLDY    64  56  75 CALM      30.12S
KANKAKEE*      PTCLDY    64  59  82 CALM      30.12S
WHEELING       MOCLDY    66  53  63 E3        30.14S
MORRIS*        PTCLDY    64  58  79 CALM      30.11S
ROMEOVILLE*    PTCLDY    65  55  68 SE3       30.12S
NORTHERLY ISL    N/A     65  57  75 E2          N/A
$$

LMZ740>746-280200-
SOUTHERN LAKE MICHIGAN

STATION/POSITION SKY/WX   TEMP    WIND        PRES    VSBY  WAVE
                          AIR SEA DIR/SP/G                  HT/PER
                          (F)     (DEG/KT/KT) (MB)    (MI)  (FT/S)
SOUTHERN BUOY              66 69  160/  6/  6 1020.3F         0
WILMETTE HARBOR            65 64  300/  4/  6   N/A           1
HARRISON CRIB              66     110/  8/  9   N/A
BURNHAM HARBOR             64     110/  3/  5   N/A
CALUMET HARBOR             67      80/  5/  7   N/A
BURNS HARBOR               67      80/  4/  6 1020.7F
MICHIGAN CITY              66      50/  6/  6   N/A
MICHIGAN CITY 6N           67 71  110/  8/  8   N/A           0
ST. JOSEPH                 66 71  100/  4/  6   N/A           0
$$

ILZ025>027-034>036-040-047-049-050-058-095>099-280200-
WEST-CENTRAL ILLINOIS

CITY           SKY/WX    TMP DP  RH WIND       PRES   REMARKS
QUINCY         MOCLDY    68  60  75 E7        30.07S
GALESBURG*     PTCLDY    63  58  84 CALM      30.11R
MACOMB*        PTCLDY    65  60  85 SE5       30.09F
JACKSONVILLE*  CLEAR     68  59  72 CALM      30.08S
PITTSFIELD*    PTCLDY    66  61  83 CALM      30.08F
$$

ILZ028>032-037-038-041>044-048-051>054-059>061-280200-
CENTRAL ILLINOIS

CITY           SKY/WX    TMP DP  RH WIND       PRES   REMARKS
PONTIAC        PTCLDY    65  62  90 E3        30.11F
BLOOMINGTON    CLEAR     66  61  84 E8        30.11F
DECATUR        CLEAR     69  60  73 SE5       30.09F
PEORIA         CLEAR     70  57  63 E3        30.08F
LACON*         CLEAR     65  60  83 E6        30.08F
LINCOLN*       CLEAR     68  58  70 CALM      30.09R
SPRINGFIELD    PTCLDY    70  58  65 CALM      30.08F
TAYLORVILLE    PTCLDY    68  61  77 S6        30.09S
$$

ILZ033-039-045-046-055>057-062-063-280200-
EAST-CENTRAL ILLINOIS

CITY           SKY/WX    TMP DP  RH WIND       PRES   REMARKS
CHAMPAIGN      CLEAR     68  60  75 NE5       30.11S
RANTOUL*       PTCLDY    72  61  67 CALM      30.11S
MATTOON        CLEAR     68  59  73 CALM      30.09F
PARIS*         PTCLDY    67  63  87 CALM      30.11R
$$

ILZ079-100>102-280200-
SOUTHWEST ILLINOIS

CITY           SKY/WX    TMP DP  RH WIND       PRES   REMARKS
BELLEVILLE     CLEAR     69  64  84 CALM      30.07S
CAHOKIA*       CLEAR     69  60  73 SE5       30.07S
SPARTA*        CLEAR     68  63  85 CALM      30.09S
$$

ILZ064>066-069>071-074>076-080>082-084>086-088>090-092>094-280200-
SOUTH-CENTRAL ILLINOIS

CITY           SKY/WX    TMP DP  RH WIND       PRES   REMARKS
CARBONDALE     CLEAR     66  61  84 CALM      30.08S
CAIRO*         CLEAR     66  64  91 CALM      30.07S
EFFINGHAM*     CLEAR     66  61  84 CALM      30.11S
MARION         CLEAR     68  63  83 CALM      30.09S
MT. VERNON     PTCLDY    64  57  77 CALM      30.10R
CENTRALIA*     PTCLDY    65  62  92 CALM      30.08S
SALEM*         PTCLDY    67  63  86 CALM      30.09S
METROPOLIS*    CLEAR     67  64  90 CALM      30.09R
$$

ILZ067-068-072-073-078-083-087-091-280200-
SOUTHEAST ILLINOIS

CITY           SKY/WX    TMP DP  RH WIND       PRES   REMARKS
LAWRENCEVILLE  CLEAR     69  62  78 MISG      30.09F
FLORA*         CLEAR     68  61  78 CALM      30.10R
FAIRFIELD*     CLEAR     68  63  84 CALM      30.08S
HARRISBURG*    CLEAR     69  63  82 CALM      30.09S
ROBINSON*      PTCLDY    66  62  87 CALM      30.10S
CARMI*         CLEAR     66  63  89 CALM      30.08S
$$

ABBREVIATIONS USED IN REMARKS
   TC - TEMPERATURE IN CELSIUS
  WCI - WIND CHILL INDEX
   HX - HEAT INDEX
  VSB - VISIBILITY
$$




USA.gov is the U.S. government's official web portal to all federal, state and local government web resources and services.